| time (UTC) | temp C | wind direction | speed KPH | gust KPH | rain 1hr cm | rain 24hr cm | rain mn cm | humidity % | barometer mb |
| 20260830160928 | 21 | 85 | 0.0 | 0.0 | 0.00 | 0.00 | 0.00 | 52 | |
| 20260830155927 | 23 | 85 | 0.0 | 0.0 | 0.00 | 0.00 | 0.00 | 45 | |
| 20260830154926 | 25 | 85 | 0.0 | 0.0 | 0.00 | 0.00 | 0.00 | 43 | |
| 20260830153926 | 25 | 85 | 0.0 | 0.0 | 0.00 | 0.00 | 0.00 | 43 | |
| 20260830152925 | 25 | 85 | 0.0 | 0.0 | 0.00 | 0.00 | 0.00 | 43 | |
| 20260830151925 | 25 | 85 | 0.0 | 0.0 | 0.00 | 0.00 | 0.00 | 43 | |
| 20260830150924 | 25 | 85 | 0.0 | 0.0 | 0.00 | 0.00 | 0.00 | 41 | |
| 20260830145924 | 25 | 85 | 0.0 | 0.0 | 0.00 | 0.00 | 0.00 | 41 | |
| 20260830145135 | 26 | 85 | 0.0 | 0.0 | 0.00 | 0.00 | 0.00 | 40 | |
| 20260830144923 | 26 | 85 | 0.0 | 0.0 | 0.00 | 0.00 | 0.00 | 40 | |
| 20260830143922 | 25 | 85 | 0.0 | 0.0 | 0.00 | 0.00 | 0.00 | 41 | |
| 20260830142922 | 26 | 85 | 0.0 | 0.0 | 0.00 | 0.00 | 0.00 | 39 | |
| 20260830141921 | 27 | 105 | 0.0 | 6.4 | 0.00 | 0.00 | 0.00 | 36 | |
| 20260830140921 | 27 | 102 | 0.0 | 4.8 | 0.00 | 0.00 | 0.00 | 38 | |
| 20260830135920 | 27 | 116 | 0.0 | 0.0 | 0.00 | 0.00 | 0.00 | 36 | |
| 20260830134919 | 27 | 116 | 0.0 | 0.0 | 0.00 | 0.00 | 0.00 | 36 | |
| 20260830133920 | 28 | 116 | 0.0 | 0.0 | 0.00 | 0.00 | 0.00 | 35 | |
| 20260830132918 | 27 | 116 | 0.0 | 0.0 | 0.00 | 0.00 | 0.00 | 37 | |
| 20260830131918 | 26 | 116 | 0.0 | 0.0 | 0.00 | 0.00 | 0.00 | 38 | |
| 20260830130917 | 26 | 116 | 0.0 | 0.0 | 0.00 | 0.00 | 0.00 | 39 | |
| 20260830125918 | 26 | 116 | 0.0 | 0.0 | 0.00 | 0.00 | 0.00 | 40 | |
| 20260830124916 | 25 | 116 | 0.0 | 0.0 | 0.00 | 0.00 | 0.00 | 40 | |
| 20260830123915 | 24 | 116 | 0.0 | 0.0 | 0.00 | 0.00 | 0.00 | 44 | |
| 20260830122916 | 22 | 116 | 0.0 | 0.0 | 0.00 | 0.00 | 0.00 | 49 | |
| 20260830121914 | 21 | 116 | 0.0 | 0.0 | 0.00 | 0.00 | 0.00 | 51 | |
| 20260830120914 | 22 | 180 | 0.0 | 0.0 | 0.00 | 0.00 | 0.00 | 100 | |
| 20260830120006 | 22 | 180 | 0.0 | 0.0 | 0.00 | 0.00 | 0.00 | 47 | |
| 20260830115913 | 22 | 180 | 0.0 | 0.0 | 0.00 | 0.00 | 0.00 | 47 | |
| 20260830052409 | 12 | 113 | 0.0 | 0.0 | 0.00 | 0.00 | 0.00 | 77 | |
| 20260830051409 | 11 | 94 | 0.0 | 0.0 | 0.00 | 0.00 | 0.00 | 100 | |
| 20260830050408 | 10 | 94 | 0.0 | 0.0 | 0.00 | 0.00 | 0.00 | 89 | |
| 20260830045407 | 9 | 94 | 0.0 | 4.8 | 0.00 | 0.00 | 0.00 | 92 |